DAL1731 TTPP-KATL

Flight info

Callsign DAL1731
Flight time N/A
Altitude 36000
Route POS UL337 ARMUR/N0465F340 L337 NEGON UL337 BODLO DCT ACMEE DCT ZQA BR65V PEACH/N0457F360 DCT FAROV DCT OVENP Q89 SHRKS DCT AMG DCT LARZZ SITTH3
Aircraft B739/M-SDE2E3FGHIRWXY/LB1

Departure

Time 2026-04-27 19:29
Airport Piarco International Airport (TTPP)

Arrival

Time N/A
Airport Hartsfield Jackson Atlanta International Airport (KATL)
Time Latitude Longitude Altitude Speed Heading
2026-04-27 18:57 10.59961 -61.33821 16 ft 0 kts 307°
2026-04-27 19:16 10.59958 -61.33817 16 ft 3 kts 306°
2026-04-27 19:16 10.59949 -61.33804 16 ft 3 kts 303°
2026-04-27 19:16 10.59934 -61.33778 16 ft 3 kts 291°
2026-04-27 19:16 10.59928 -61.33756 16 ft 3 kts 266°
2026-04-27 19:17 10.59932 -61.33742 16 ft 3 kts 204°
2026-04-27 19:17 10.59940 -61.33740 16 ft 1 kts 180°
2026-04-27 19:17 10.59941 -61.33740 16 ft 0 kts 180°
2026-04-27 19:20 10.59933 -61.33740 18 ft 3 kts 180°
2026-04-27 19:21 10.59914 -61.33740 16 ft 0 kts 180°
2026-04-27 19:21 10.59911 -61.33740 16 ft 1 kts 180°
2026-04-27 19:21 10.59892 -61.33740 16 ft 4 kts 180°
2026-04-27 19:22 10.59845 -61.33741 16 ft 9 kts 180°
2026-04-27 19:22 10.59774 -61.33741 16 ft 11 kts 179°
2026-04-27 19:22 10.59717 -61.33766 16 ft 9 kts 244°
2026-04-27 19:22 10.59710 -61.33830 16 ft 9 kts 269°
2026-04-27 19:23 10.59709 -61.33893 16 ft 8 kts 269°
2026-04-27 19:23 10.59709 -61.33949 16 ft 8 kts 269°
2026-04-27 19:23 10.59709 -61.34025 16 ft 13 kts 270°
2026-04-27 19:23 10.59709 -61.34120 16 ft 14 kts 270°
2026-04-27 19:24 10.59708 -61.34212 16 ft 13 kts 269°
2026-04-27 19:24 10.59707 -61.34309 16 ft 14 kts 270°
2026-04-27 19:24 10.59705 -61.34412 17 ft 15 kts 268°
2026-04-27 19:24 10.59677 -61.34513 17 ft 16 kts 220°
2026-04-27 19:25 10.59567 -61.34528 15 ft 17 kts 180°
2026-04-27 19:25 10.59447 -61.34530 17 ft 16 kts 194°
2026-04-27 19:25 10.59410 -61.34613 16 ft 13 kts 266°
2026-04-27 19:25 10.59398 -61.34699 16 ft 13 kts 254°
2026-04-27 19:26 10.59374 -61.34785 16 ft 12 kts 255°
2026-04-27 19:26 10.59355 -61.34862 18 ft 11 kts 260°
2026-04-27 19:26 10.59352 -61.34949 16 ft 14 kts 269°
2026-04-27 19:26 10.59351 -61.35055 16 ft 15 kts 269°
2026-04-27 19:27 10.59355 -61.35153 16 ft 13 kts 285°
2026-04-27 19:27 10.59414 -61.35194 16 ft 10 kts 359°
2026-04-27 19:27 10.59472 -61.35189 16 ft 8 kts 15°
2026-04-27 19:27 10.59522 -61.35167 16 ft 7 kts 44°
2026-04-27 19:28 10.59533 -61.35108 16 ft 13 kts 89°
2026-04-27 19:28 10.59534 -61.34895 16 ft 61 kts 90°
2026-04-27 19:28 10.59536 -61.34226 16 ft 125 kts 90°
2026-04-27 19:28 10.59530 -61.33168 60 ft 169 kts 92°
2026-04-27 19:29 10.59500 -61.31959 695 ft 171 kts 95°
2026-04-27 19:29 10.59422 -61.30723 1304 ft 180 kts 94°
2026-04-27 19:29 10.59283 -61.29437 1894 ft 184 kts 100°
2026-04-27 19:29 10.59153 -61.28198 2672 ft 175 kts 107°
2026-04-27 19:30 10.58449 -61.27165 2948 ft 191 kts 137°
2026-04-27 19:30 10.57337 -61.26313 3134 ft 210 kts 140°
2026-04-27 19:30 10.56080 -61.25430 3252 ft 230 kts 150°
2026-04-27 19:30 10.54427 -61.25200 3389 ft 257 kts 188°
2026-04-27 19:31 10.52805 -61.26090 3614 ft 278 kts 224°
2026-04-27 19:31 10.51680 -61.27739 3997 ft 291 kts 241°
2026-04-27 19:31 10.50816 -61.29684 4196 ft 313 kts 246°
2026-04-27 19:31 10.49954 -61.31746 4782 ft 319 kts 245°
2026-04-27 19:32 10.49047 -61.33814 5479 ft 321 kts 244°
2026-04-27 19:32 10.48124 -61.35893 6173 ft 324 kts 247°
2026-04-27 19:32 10.47691 -61.38146 6734 ft 330 kts 272°
2026-04-27 19:32 10.48221 -61.40410 7321 ft 333 kts 297°
2026-04-27 19:33 10.49560 -61.42301 7911 ft 332 kts 315°
2026-04-27 19:33 10.50636 -61.43428 8284 ft 335 kts 316°
2026-04-27 19:33 10.52888 -61.45668 8985 ft 341 kts 317°
2026-04-27 19:33 10.54594 -61.47338 9518 ft 343 kts 317°
2026-04-27 19:34 10.56325 -61.49036 10083 ft 345 kts 317°
2026-04-27 19:34 10.58051 -61.50739 10618 ft 347 kts 317°
2026-04-27 19:34 10.59794 -61.52470 10969 ft 357 kts 316°
2026-04-27 19:34 10.61609 -61.54280 11078 ft 373 kts 316°
2026-04-27 19:35 10.63492 -61.56161 11192 ft 387 kts 316°
2026-04-27 19:35 10.65438 -61.58110 11295 ft 399 kts 316°
2026-04-27 19:35 10.67449 -61.60128 11385 ft 411 kts 316°
2026-04-27 19:35 10.69505 -61.62194 11605 ft 418 kts 316°
2026-04-27 19:36 10.71579 -61.64280 11971 ft 421 kts 316°
2026-04-27 19:36 10.73665 -61.66379 12393 ft 421 kts 316°
2026-04-27 19:36 10.75726 -61.68455 12780 ft 423 kts 316°
2026-04-27 19:36 10.77845 -61.70587 13159 ft 425 kts 316°
2026-04-27 19:37 10.79926 -61.72682 13489 ft 427 kts 315°
2026-04-27 19:37 10.82073 -61.74844 13852 ft 429 kts 315°
2026-04-27 19:37 10.84162 -61.76947 14188 ft 431 kts 315°
2026-04-27 19:37 10.86304 -61.79105 14493 ft 433 kts 315°
2026-04-27 19:38 10.88446 -61.81262 14810 ft 435 kts 315°
2026-04-27 19:38 10.90611 -61.83442 15147 ft 436 kts 315°
2026-04-27 19:38 10.92766 -61.85613 15479 ft 437 kts 315°
2026-04-27 19:38 10.94931 -61.87796 15765 ft 440 kts 315°
2026-04-27 19:39 10.97116 -61.89999 16045 ft 442 kts 315°
2026-04-27 19:39 10.99298 -61.92200 16326 ft 444 kts 315°
2026-04-27 19:39 11.01499 -61.94419 16621 ft 445 kts 315°
2026-04-27 19:39 11.03696 -61.96634 16892 ft 446 kts 315°
2026-04-27 19:40 11.05906 -61.98865 17149 ft 448 kts 315°
2026-04-27 19:40 11.08119 -62.01100 17411 ft 449 kts 315°
2026-04-27 19:40 11.10348 -62.03350 17618 ft 452 kts 314°
2026-04-27 19:40 11.12590 -62.05614 17839 ft 454 kts 314°
2026-04-27 19:41 11.14833 -62.07880 18096 ft 454 kts 314°
2026-04-27 19:41 11.17081 -62.10151 18355 ft 455 kts 314°
2026-04-27 19:41 11.19328 -62.12420 18558 ft 457 kts 314°
2026-04-27 19:41 11.21598 -62.14716 18700 ft 460 kts 314°
2026-04-27 19:42 11.23866 -62.17008 18909 ft 461 kts 314°
2026-04-27 19:42 11.26151 -62.19319 19125 ft 462 kts 314°
2026-04-27 19:42 11.28437 -62.21632 19315 ft 464 kts 314°
2026-04-27 19:42 11.30729 -62.23951 19462 ft 466 kts 314°
2026-04-27 19:43 11.33035 -62.26284 19643 ft 467 kts 314°
2026-04-27 19:43 11.35352 -62.28631 19837 ft 468 kts 314°
2026-04-27 19:43 11.37665 -62.30972 19980 ft 470 kts 314°
2026-04-27 19:43 11.39993 -62.33329 20115 ft 472 kts 314°
2026-04-27 19:44 11.42321 -62.35686 20289 ft 473 kts 314°
2026-04-27 19:44 11.44658 -62.38054 20457 ft 474 kts 314°
2026-04-27 19:44 11.46992 -62.40419 20591 ft 476 kts 314°
2026-04-27 19:44 11.49352 -62.42811 20711 ft 477 kts 314°
2026-04-27 19:45 11.51709 -62.45201 20856 ft 478 kts 314°
2026-04-27 19:45 11.54071 -62.47596 21011 ft 479 kts 314°
2026-04-27 19:45 11.56437 -62.49995 21151 ft 480 kts 314°
2026-04-27 19:45 11.58804 -62.52396 21276 ft 482 kts 314°
2026-04-27 19:46 11.61182 -62.54809 21384 ft 483 kts 314°
2026-04-27 19:46 11.63570 -62.57235 21513 ft 484 kts 314°
2026-04-27 19:46 11.65959 -62.59662 21654 ft 485 kts 314°
2026-04-27 19:46 11.68352 -62.62092 21789 ft 485 kts 314°
2026-04-27 19:47 11.70746 -62.64524 21874 ft 487 kts 314°
2026-04-27 19:47 11.73150 -62.66968 21941 ft 489 kts 314°
2026-04-27 19:47 11.75562 -62.69420 22053 ft 489 kts 314°
2026-04-27 19:47 11.77976 -62.71874 22177 ft 490 kts 314°
2026-04-27 19:48 11.80391 -62.74331 22279 ft 491 kts 314°
2026-04-27 19:48 11.82810 -62.76791 22354 ft 492 kts 314°
2026-04-27 19:48 11.85238 -62.79262 22437 ft 493 kts 314°
2026-04-27 19:48 11.87663 -62.81730 22532 ft 494 kts 314°
2026-04-27 19:49 11.90098 -62.84209 22635 ft 494 kts 314°
2026-04-27 19:49 11.92535 -62.86691 22717 ft 495 kts 314°
2026-04-27 19:49 11.94974 -62.89174 22791 ft 495 kts 314°
2026-04-27 19:49 11.97416 -62.91663 22876 ft 496 kts 314°
2026-04-27 19:50 11.99859 -62.94153 22937 ft 497 kts 314°
2026-04-27 19:50 12.02303 -62.96645 22967 ft 498 kts 314°
2026-04-27 19:50 12.04762 -62.99152 23077 ft 497 kts 314°
2026-04-27 19:50 12.07203 -63.01642 23171 ft 497 kts 314°
2026-04-27 19:51 12.09661 -63.04149 23240 ft 498 kts 314°
2026-04-27 19:51 12.12108 -63.06647 23308 ft 499 kts 314°
2026-04-27 19:51 12.14568 -63.09157 23378 ft 499 kts 314°
2026-04-27 19:51 12.17024 -63.11667 23459 ft 500 kts 314°
2026-04-27 19:52 12.19485 -63.14180 23510 ft 500 kts 314°
2026-04-27 19:52 12.21117 -63.15848 23562 ft 501 kts 314°